This demonstration page uses our WeatherBlox Daily Observations layout. Learn more.

Left ArrowRight Arrow

44.8408, -93.29828

Hourly Observations for November 16, 2015

Temp ( °F °C ) Dew Point ( °F °C ) Humidity (%) Winds ( mph kmh ) Pressure ( in mb ) Visibility ( mi km ) Precip ( " mm )
12:14 am 00:14 Cloudy 53 11.7 44 6.7 72 72 SSE 14 22 29.97 1015 10 16 0.00 0.00
12:29 am 00:29 Cloudy 53 11.7 45 7.2 74 74 SSE 14 22 29.94 1014 10 16 0.00 0.00
12:53 am 00:53 Cloudy 53 11.7 45 7.2 74 74 SSE 12 19 29.92 1013 10 16 0.00 0.00
1:50 am 01:50 Cloudy 54 12 45 7 72 72 SE 13 20 29.94 1014 10 16 0.00 0.00
1:53 am 01:53 Cloudy 53 11.7 45 7.2 74 74 SSE 13 20 29.91 1013 10 16 0.00 0.00
2:00 am 02:00 Cloudy 54 12 45 7 72 72 SE 13 20 29.94 1014 10 16 0.00 0.00
2:53 am 02:53 Cloudy 53 11.7 46 7.8 77 77 SSE 16 26 29.90 1013 10 16 0.00 0.00
3:53 am 03:53 Cloudy 53 11.7 45 7.2 74 74 SSE 16 26 29.88 1012 10 16 0.00 0.00
4:53 am 04:53 Cloudy 52 11.1 46 7.8 80 80 SSE 14 22 29.88 1012 10 16 0.00 0.00
5:10 am 05:10 Cloudy 52 11.1 46 7.8 80 80 SE 17 28 29.91 1013 10 16 0.00 0.00
5:53 am 05:53 Cloudy 52 11.1 44 6.7 75 75 SSE 14 22 29.87 1011 10 16 0.00 0.00
6:11 am 06:11 Cloudy with Thunderstorms 53 11.7 44 6.7 72 72 SE 13 20 29.88 1012 10 16 0.00 0.00
6:53 am 06:53 Cloudy with Nearby Thunderstorms 52 11.1 44 6.7 75 75 SE 12 19 29.86 1011 10 16 0.01 0.25
7:01 am 07:01 Cloudy 53 11.7 44 6.7 72 72 SE 12 19 29.88 1012 10 16 0.00 0.00
7:12 am 07:12 Cloudy 54 12 43 6 67 67 SE 12 19 29.88 1012 10 16 0.00 0.00
7:21 am 07:21 Cloudy with Light Rain 53 11.7 43 6.1 69 69 SE 12 19 29.88 1012 10 16 0.00 0.03
7:53 am 07:53 Cloudy with Light Rain 52 11.1 44 6.7 75 75 SSE 8 13 29.87 1012 8 13 0.03 0.76
8:53 am 08:53 Cloudy with Light Rain 50 10 44 6.7 80 80 SSE 14 22 29.87 1012 9 14 0.03 0.76
9:03 am 09:03 Cloudy 48 9 45 7 87 87 SSE 12 19 29.88 1012 10 16 0.00 0.00
9:53 am 09:53 Cloudy with Light Rain 49 9.4 45 7.2 86 86 SE 12 19 29.85 1011 10 16 0.01 0.25
10:32 am 10:32 Cloudy with Light Rain 48 9 45 7 87 87 SE 18 30 29.85 1011 8 13 0.00 0.00
10:53 am 10:53 Cloudy with Light Rain 48 8.9 45 7.2 89 89 SE 18 30 29.84 1011 8 13 0.01 0.25
11:53 am 11:53 Cloudy with Light Rain 47 8.3 44 6.7 90 90 SE 18 30 29.82 1010 9 14 0.05 1.27
12:30 pm 12:30 Cloudy 47 8.3 45 7.2 93 93 SE 15 24 29.83 1010 10 16 0.01 0.25
12:53 pm 12:53 Cloudy 47 8.3 45 7.2 93 93 SE 13 20 29.80 1009 8 13 0.01 0.25
1:17 pm 13:17 Cloudy with Drizzle 47 8.3 45 7.2 93 93 SE 14 22 29.83 1010 2 3 0.00 0.03
1:36 pm 13:36 Cloudy with Drizzle 46 8 46 8 100 100 SE 12 19 29.83 1010 3 5 0.00 0.00
1:48 pm 13:48 Cloudy with Drizzle 48 9 46 8 94 94 SE 13 20 29.80 1009 3 5 0.00 0.00
1:53 pm 13:53 Cloudy with Drizzle 48 8.9 46 7.8 93 93 SE 12 19 29.79 1009 3 5 0.00 0.03
2:17 pm 14:17 Cloudy with Drizzle 47 8.3 46 7.8 97 97 SE 14 22 29.80 1009 2 3 0.01 0.25
2:29 pm 14:29 Cloudy with Drizzle 47 8.3 46 7.8 97 97 SE 14 22 29.80 1009 2 3 0.01 0.25
2:53 pm 14:53 Cloudy with Drizzle 48 8.9 46 7.8 93 93 SE 12 19 29.79 1009 2 3 0.01 0.25
3:30 pm 15:30 Cloudy with Drizzle 48 9 46 8 94 94 SE 10 17 29.83 1010 4 6 0.00 0.00
3:43 pm 15:43 Cloudy with Drizzle 48 8.9 46 7.8 93 93 SE 15 24 29.83 1010 7 11 0.01 0.25
3:53 pm 15:53 Cloudy with Drizzle 49 9.4 47 8.3 93 93 SE 14 22 29.79 1009 3 5 0.01 0.25
3:57 pm 15:57 Cloudy with Drizzle 49 9.4 47 8.3 93 93 SSE 14 22 29.83 1010 2 3 0.00 0.03
4:21 pm 16:21 Cloudy with Drizzle 49 9.4 47 8.3 93 93 SSE 13 20 29.83 1010 3 5 0.00 0.03
4:53 pm 16:53 Cloudy with Drizzle 49 9.4 47 8.3 93 93 SSE 13 20 29.80 1009 6 10 0.00 0.03
5:04 pm 17:04 Cloudy with Drizzle 48 9 46 8 94 94 SE 14 22 29.83 1010 6 10 0.00 0.00
5:28 pm 17:28 Cloudy with Light Rain 48 9 46 8 94 94 SE 12 19 29.83 1010 6 10 0.00 0.00
5:53 pm 17:53 Cloudy with Drizzle 49 9.4 47 8.3 93 93 SSE 16 26 29.80 1009 4 6 0.00 0.03
6:26 pm 18:26 Cloudy 48 9 46 8 94 94 SE 14 22 29.83 1010 7 11 0.00 0.00
6:38 pm 18:38 Cloudy with Drizzle 48 9 46 8 94 94 SE 13 20 29.83 1010 4 6 0.00 0.00
6:53 pm 18:53 Cloudy with Drizzle 49 9.4 47 8.3 93 93 SE 14 22 29.82 1010 6 10 0.00 0.03
7:33 pm 19:33 Cloudy 49 9.4 46 7.8 90 90 SE 15 24 29.83 1010 10 16 0.00 0.03
7:53 pm 19:53 Cloudy 49 9.4 47 8.3 93 93 SE 14 22 29.81 1010 10 16 0.00 0.03
8:35 pm 20:35 Cloudy 49 9.4 46 7.8 90 90 SE 15 24 29.83 1010 10 16 0.00 0.00
8:53 pm 20:53 Cloudy 49 9.4 47 8.3 93 93 SSE 17 28 29.81 1010 10 16 0.00 0.00
9:53 pm 21:53 Cloudy with Drizzle 49 9.4 47 8.3 93 93 SE 16 26 29.81 1009 5 8 0.00 0.03
10:06 pm 22:06 Cloudy with Drizzle 48 9 46 8 94 94 SE 17 28 29.83 1010 5 8 0.00 0.00
10:53 pm 22:53 Cloudy with Drizzle 49 9.4 47 8.3 93 93 SSE 13 20 29.81 1009 8 13 0.00 0.03
11:53 pm 23:53 Cloudy 49 9.4 47 8.3 93 93 SE 13 20 29.80 1009 8 13 0.00 0.03

Powered by AerisWeather